Theta_e
348 349 352 355 357 360 363 364 364 365 366 367 368 367 367 367 366 366 365 364 365 365 365 366 366 366 366 366 366 366 365 364 364 364 363 363 364 364 363 362 362 362 362 362 362 362 362 362 363 363 362 361 362 361 364 364 364 363 362 362 362 363 363 363 363 363 363 363 362 362 362 362 361 360 360 361 361 360 362 360 361 356 356 356 356
350 352 352 354 356 360 362 364 365 366 366 366 367 367 367 367 366 365 365 364 365 365 365 366 366 366 366 366 365 365 364 364 363 363 363 362 362 363 362 362 362 362 362 362 361 364 362 362 362 362 362 362 362 362 363 361 361 361 362 362 362 363 362 362 362 362 362 363 363 362 362 362 361 361 361 361 361 361 362 360 361 356 356 358 359
355 355 353 354 357 359 361 363 365 366 366 367 367 367 366 366 365 364 364 364 364 365 366 365 366 365 365 365 365 365 364 364 363 363 363 362 362 362 362 362 362 362 363 362 362 362 362 362 362 361 363 360 361 362 361 362 362 362 362 362 362 361 361 363 362 362 362 362 362 362 362 362 361 362 362 361 362 361 361 361 361 360 355 357 359
354 355 356 357 360 359 361 365 366 366 366 366 367 366 365 365 365 364 365 365 365 365 365 366 365 365 365 364 363 363 363 363 363 362 363 362 361 362 363 362 362 362 362 363 363 363 363 362 360 362 362 361 362 361 363 363 362 362 362 361 361 361 361 361 361 361 362 363 363 362 360 356 358 361 361 361 361 361 360 360 360 360 359 359 358
355 356 356 355 356 357 362 364 365 366 366 366 366 365 365 365 365 364 365 365 365 365 366 365 365 364 364 364 363 363 363 362 362 362 362 361 362 362 362 363 362 362 362 362 363 362 362 361 361 361 361 361 360 362 361 361 361 361 362 361 361 361 360 360 361 362 362 363 361 359 353 355 355 361 361 361 361 361 360 360 361 361 361 359 359
355 356 357 358 360 360 360 363 365 365 366 366 366 366 366 365 365 366 366 366 366 365 365 365 364 364 364 364 363 363 362 362 362 362 362 362 361 361 361 362 361 361 361 362 362 363 362 361 361 362 361 361 361 361 361 360 361 361 361 362 362 361 360 360 360 361 361 362 361 354 353 354 355 357 361 361 360 362 361 361 361 360 360 360 360
356 356 357 358 359 362 364 364 365 366 365 366 365 366 366 366 366 366 366 366 365 365 364 364 363 363 364 364 363 362 362 362 362 362 362 362 362 361 361 362 362 362 361 362 362 362 361 362 361 361 361 361 361 361 361 361 360 362 362 362 362 361 360 360 360 361 360 356 350 351 351 354 355 355 360 361 360 362 361 361 361 359 360 359 360
356 357 357 358 360 363 365 366 366 366 365 365 365 366 366 366 366 366 365 365 364 364 364 363 363 364 363 363 364 362 362 362 362 362 362 363 362 362 362 362 362 362 362 361 362 361 362 362 362 362 362 361 361 360 360 360 361 362 362 361 361 361 361 360 360 360 359 352 352 351 352 354 354 356 361 361 361 361 360 359 361 361 361 360 361
355 356 358 359 361 365 365 365 365 366 365 365 366 366 366 366 366 365 365 364 364 364 364 363 363 363 363 364 363 363 362 363 363 362 362 362 363 362 363 362 362 362 362 361 361 361 362 361 362 361 361 360 361 360 360 360 360 360 360 361 362 362 361 361 361 361 356 353 351 351 351 352 353 356 361 361 361 360 360 359 358 359 360 360 361
355 357 359 359 361 365 364 365 364 364 365 366 366 366 366 365 365 364 364 364 364 364 363 363 363 362 363 363 363 362 362 363 362 363 363 362 362 362 362 363 362 362 363 361 361 361 361 361 361 362 362 361 361 361 361 361 360 359 360 361 361 362 362 361 361 360 353 352 352 352 356 359 354 356 359 360 360 360 360 360 359 358 359 360 359
357 358 359 360 361 365 365 365 364 365 366 366 366 365 365 365 365 365 364 365 364 363 363 363 362 363 363 363 362 362 363 363 362 362 362 362 362 363 362 361 362 362 362 362 361 362 361 361 361 361 361 360 360 360 360 360 360 361 361 363 362 362 362 361 360 353 353 353 353 354 358 360 353 355 360 360 359 359 360 359 360 360 360 359 359
357 358 359 360 365 365 366 365 366 366 366 366 365 365 365 365 366 365 365 364 364 363 363 364 362 362 363 362 362 363 363 363 363 362 362 363 362 363 362 361 361 361 362 362 362 361 361 362 362 360 360 359 360 361 362 362 361 359 359 361 362 362 362 361 354 352 353 353 354 354 354 354 354 357 361 360 359 360 361 361 360 359 359 359 358
357 358 360 361 361 365 365 366 366 365 366 365 365 365 365 366 366 365 365 364 364 363 363 364 363 362 362 362 362 361 363 363 362 362 363 362 362 362 361 361 362 362 362 362 361 361 361 361 361 361 359 359 359 361 360 360 360 361 361 361 361 362 362 360 353 353 352 352 353 352 352 353 355 360 359 360 360 360 360 360 360 359 358 358 358
357 358 360 360 361 366 366 366 365 365 366 365 366 365 365 366 365 364 364 364 363 362 362 362 362 363 362 363 363 363 363 362 362 363 363 362 362 362 361 361 361 362 362 361 360 360 361 361 362 361 359 359 359 360 361 360 361 360 361 361 362 362 363 361 359 354 354 353 354 353 353 355 354 359 359 360 360 360 360 359 359 358 358 358 358
357 359 360 361 361 362 367 365 366 366 367 366 366 365 365 365 364 363 363 363 364 363 362 362 364 364 363 363 363 363 363 363 362 363 363 362 362 362 363 363 362 362 361 360 360 360 361 362 362 362 360 359 360 360 360 361 360 360 360 361 360 361 362 355 355 354 354 355 354 354 352 352 359 360 360 360 360 360 360 359 358 358 357 358 358
360 359 360 360 360 362 362 366 367 367 367 366 366 365 365 364 364 364 364 363 365 364 363 363 364 364 364 363 364 364 363 363 362 363 363 363 362 362 363 362 362 361 361 360 360 361 362 362 362 362 361 359 360 360 360 361 360 360 360 360 360 362 362 359 354 353 352 352 354 356 353 355 360 359 359 360 360 360 359 358 358 358 357 357 357
359 360 359 359 360 360 362 362 364 367 366 367 366 365 365 365 365 364 363 365 364 363 363 364 364 364 364 364 364 363 363 363 364 363 363 363 363 362 362 363 362 361 360 359 360 360 362 362 362 362 362 360 360 359 360 361 361 360 360 360 361 361 362 359 353 352 353 356 355 353 353 354 360 360 359 360 359 360 359 358 358 358 357 357 358
358 359 357 358 358 360 361 361 362 362 362 364 366 363 366 366 364 364 365 365 364 365 364 363 364 364 364 364 364 364 364 365 363 363 363 363 363 362 363 363 362 360 360 359 360 361 363 363 363 362 362 361 359 360 360 360 360 360 360 361 361 361 362 360 353 353 355 358 353 356 354 357 361 358 359 359 359 359 358 358 358 358 358 357 357
356 357 358 358 358 359 360 360 360 359 360 360 361 363 365 366 365 365 366 365 365 365 364 363 364 364 365 364 364 364 364 365 365 364 364 365 364 363 363 363 362 361 360 360 360 361 363 363 363 363 362 361 361 360 359 360 360 361 361 360 360 362 362 359 354 354 356 353 354 352 353 360 360 359 359 359 359 359 358 358 358 358 358 357 357
353 355 357 358 358 358 359 359 359 358 359 361 361 362 365 366 366 366 365 366 366 365 364 364 364 365 364 363 364 364 363 361 364 362 364 364 363 362 363 364 363 362 361 361 362 362 363 363 363 364 362 361 361 359 359 360 360 361 360 361 360 362 353 352 353 352 353 355 356 352 359 361 359 358 358 358 358 358 358 358 358 358 357 357 357
353 354 355 356 357 358 359 359 360 360 360 361 361 361 363 366 365 365 365 366 365 365 364 364 364 363 362 363 363 361 359 358 360 360 364 363 364 364 364 365 364 363 363 363 362 363 363 363 363 363 362 362 362 361 359 359 360 360 361 360 362 351 350 351 353 355 355 356 357 354 359 361 359 359 359 358 358 358 358 358 358 357 357 358 358
350 351 354 355 357 358 358 359 359 360 360 361 361 362 363 364 361 361 362 363 364 364 362 361 365 359 364 362 359 361 357 356 358 363 361 363 363 365 364 364 364 363 364 364 363 363 362 363 363 362 362 362 361 356 360 367 360 360 360 360 352 349 349 351 351 353 354 354 356 357 361 359 359 358 358 358 358 358 357 358 358 358 358 358 358
348 350 352 355 356 357 358 358 358 359 360 360 361 361 360 360 360 361 362 364 364 364 361 362 357 358 357 359 361 358 357 358 360 363 364 364 364 365 364 364 364 363 363 364 364 363 362 362 363 363 363 363 361 356 356 353 356 361 362 360 354 348 348 349 350 351 351 353 351 359 359 358 359 359 359 358 358 358 358 358 358 358 358 358 358
348 350 351 355 356 356 357 358 357 358 359 358 360 359 359 359 359 360 360 359 360 361 359 358 358 356 356 356 357 358 358 356 365 365 363 359 360 364 364 365 365 364 365 365 363 362 362 363 363 363 370 366 356 356 356 355 354 355 356 356 352 348 348 348 349 349 351 356 354 360 359 358 359 359 359 358 358 358 357 358 358 358 358 358 358
348 350 353 353 355 356 357 357 358 358 357 358 359 358 358 358 358 358 358 357 357 357 358 358 358 357 356 357 358 358 358 357 357 357 355 356 355 356 358 357 356 357 364 355 356 358 357 355 357 361 355 358 356 354 355 353 358 357 356 356 352 347 348 349 349 350 351 353 353 359 359 359 359 359 359 358 358 358 358 358 358 359 358 358 357
349 349 351 352 354 356 356 356 357 356 356 357 357 359 359 357 357 358 357 357 356 356 357 358 358 358 357 359 359 357 357 356 355 354 354 354 355 355 355 354 354 358 362 354 352 351 352 352 355 355 355 355 355 354 353 357 354 355 354 354 349 348 347 348 349 350 351 351 357 359 358 358 358 358 359 359 358 359 359 359 358 359 358 358 358
348 349 351 352 354 355 355 355 355 355 355 357 357 359 357 357 357 357 356 355 355 356 356 357 358 357 357 359 357 356 356 355 356 355 354 355 354 354 355 356 355 355 359 354 353 354 353 353 353 354 355 355 355 355 354 354 353 353 353 350 348 348 348 349 349 350 350 352 357 359 358 358 358 358 358 358 358 358 359 359 359 359 359 358 358
347 348 350 352 353 353 353 355 354 354 355 356 356 356 355 356 357 361 358 357 356 356 356 357 358 357 357 358 361 357 356 356 356 355 354 354 354 355 355 355 355 355 358 353 353 354 354 353 354 354 355 353 351 352 353 354 353 352 351 348 348 348 349 349 350 350 351 351 353 358 358 358 358 357 358 358 357 359 359 359 359 358 358 358 358
345 347 349 350 352 353 353 353 353 354 354 356 355 355 355 355 357 357 355 360 355 356 357 358 358 357 357 358 363 356 356 357 355 355 353 352 353 354 355 353 353 353 355 355 352 352 353 353 355 354 353 350 349 349 351 352 351 350 349 349 349 349 350 350 350 351 351 351 353 356 359 359 358 358 358 358 358 358 359 359 358 358 358 358 358
345 347 349 350 351 352 352 353 353 353 354 355 355 354 355 354 356 356 355 361 355 357 358 358 359 357 355 357 364 357 357 357 355 353 353 352 353 354 354 352 353 356 355 353 355 353 352 353 354 355 355 352 350 349 351 349 350 350 349 349 349 350 350 350 350 351 352 352 353 358 360 359 359 358 358 358 358 358 358 359 358 358 358 358 358
346 346 349 350 352 351 351 353 353 355 354 355 355 355 355 354 356 355 356 358 356 358 358 357 357 356 355 356 359 359 357 357 354 353 352 352 352 354 352 352 353 353 355 355 355 355 355 355 355 353 353 352 351 352 356 347 347 347 351 349 350 350 350 351 352 352 353 353 353 354 358 359 359 359 358 358 358 358 358 359 359 359 358 358 357
345 346 348 350 352 351 351 352 354 354 355 355 356 354 354 355 356 354 356 356 357 356 356 355 357 354 354 355 356 357 361 356 353 352 352 350 350 351 349 350 350 352 354 356 355 358 358 358 358 358 356 356 355 354 354 348 344 346 348 349 350 350 350 351 351 352 353 353 353 354 354 357 359 359 359 358 358 358 358 358 359 359 358 358 357
346 347 348 349 351 351 352 352 355 354 353 354 355 354 354 356 355 353 356 357 356 355 354 353 354 353 353 355 355 356 359 354 352 352 358 349 349 348 349 354 352 355 354 358 359 357 356 354 353 359 356 355 353 350 356 346 343 344 347 348 349 350 350 350 351 352 352 353 353 353 353 355 356 359 359 359 359 358 358 359 359 358 358 358 358
345 346 347 348 351 352 354 354 355 354 353 353 354 353 354 355 355 353 358 356 354 352 353 351 354 355 356 357 356 357 359 354 352 351 353 349 349 348 349 352 352 355 359 359 355 356 354 354 357 351 359 354 351 350 350 348 343 343 345 347 348 349 349 349 350 351 352 353 354 354 354 355 355 355 357 360 360 359 359 358 359 358 359 358 358
345 345 346 348 351 352 354 354 356 353 355 352 353 352 355 355 354 353 356 355 354 351 353 354 356 357 359 360 361 363 360 356 356 354 353 350 349 349 351 352 355 358 358 357 353 356 354 354 357 350 351 351 348 352 352 349 341 341 342 346 346 348 349 349 349 350 351 352 353 353 354 355 354 355 357 355 361 361 361 359 360 359 359 358 359
344 344 346 349 349 352 355 353 354 353 353 352 352 353 355 355 354 358 354 354 353 353 354 357 358 359 361 362 363 364 362 360 359 356 353 352 352 352 353 355 357 358 357 359 357 353 355 356 359 353 349 351 353 347 347 346 340 342 344 344 345 350 346 347 348 349 351 351 351 352 354 354 355 355 359 355 355 358 362 360 360 360 360 359 359
344 344 346 347 347 351 355 353 353 352 353 353 352 353 354 353 353 355 353 353 351 353 355 358 358 359 360 362 363 366 362 362 361 358 355 355 355 355 356 359 360 358 356 357 357 359 355 360 355 359 352 350 350 350 346 344 342 342 342 345 347 348 345 346 347 349 351 349 350 352 352 353 356 362 358 356 355 355 359 362 361 361 361 361 360
344 344 346 346 348 351 352 353 353 353 353 353 351 352 353 353 353 353 355 350 352 354 355 357 357 358 360 361 363 365 364 363 362 360 358 358 357 357 359 358 360 358 355 354 354 356 355 354 354 357 354 351 349 346 343 343 346 344 342 345 345 343 344 345 348 357 349 349 350 351 351 353 355 356 357 356 356 355 355 359 361 361 362 362 362
343 343 345 345 350 350 351 353 352 352 352 352 352 352 352 352 352 352 352 348 350 352 355 355 356 358 359 361 363 364 365 361 361 362 361 361 357 358 358 359 359 355 353 351 352 359 359 355 354 352 357 353 350 349 346 343 346 343 341 341 344 346 347 348 355 349 349 350 351 354 353 352 353 355 355 355 355 355 354 354 355 357 358 362 362
342 342 344 345 348 349 350 351 351 351 352 352 352 349 350 350 349 349 348 347 348 350 352 354 356 357 360 362 362 363 363 363 362 361 359 358 357 356 357 358 356 354 350 349 350 351 353 354 355 353 353 355 359 353 346 344 341 340 344 339 343 344 345 352 349 346 350 350 352 355 352 353 353 354 355 355 355 354 354 354 356 355 356 358 361
341 340 341 344 347 348 348 347 349 350 350 349 349 347 347 347 347 346 345 346 345 346 349 353 356 357 361 361 362 363 363 363 363 359 357 363 358 358 357 355 355 353 351 350 352 353 354 358 358 358 356 345 345 344 344 339 337 335 337 339 339 344 354 353 347 346 347 347 349 353 352 353 353 354 356 356 355 354 354 353 353 354 355 355 357
338 339 340 344 346 348 347 347 348 349 350 349 349 346 348 347 346 345 343 343 343 345 346 352 356 359 360 361 361 363 364 363 364 359 358 356 356 357 356 354 354 354 353 354 352 359 356 355 354 348 353 346 344 348 344 337 334 330 332 333 338 336 346 350 344 344 343 342 345 350 348 350 351 353 355 356 355 355 355 354 353 353 353 354 354
338 339 340 344 346 347 347 348 347 348 349 349 348 345 346 346 345 343 343 341 345 347 349 354 358 359 360 360 362 363 363 363 363 361 356 355 356 356 356 354 353 357 354 353 353 352 353 355 352 348 348 349 351 352 343 338 334 340 337 335 329 329 337 338 344 346 344 342 341 343 345 346 349 349 351 353 353 355 356 355 353 353 352 352 352
337 338 339 343 346 347 347 347 347 347 348 348 350 347 348 346 345 344 342 341 342 348 350 355 357 358 358 359 361 362 362 363 363 361 358 356 357 356 358 355 354 357 352 352 352 352 353 354 354 355 347 343 341 343 352 345 340 336 330 330 329 329 326 329 334 339 343 342 341 340 342 343 344 344 346 348 351 353 355 355 354 353 353 352 352
336 338 339 342 346 346 346 346 347 346 348 350 349 348 350 345 344 343 342 343 346 346 349 352 355 357 357 357 359 361 362 362 364 362 361 358 358 358 360 357 355 357 355 352 353 354 356 355 354 353 348 343 342 344 349 346 342 339 338 331 328 326 327 329 335 333 339 338 340 340 343 340 341 341 343 343 347 350 353 354 354 353 353 353 353
336 338 339 343 346 346 346 346 347 346 348 348 348 348 349 343 341 338 335 335 337 344 346 349 351 353 354 357 359 361 362 362 362 363 362 361 359 360 360 358 357 359 358 356 356 355 354 355 356 353 350 350 346 343 343 350 347 354 343 335 333 326 325 331 329 324 336 345 342 342 339 343 340 341 342 340 340 343 350 351 352 352 353 353 354
336 339 340 343 346 346 346 346 346 346 349 348 349 349 347 343 341 338 336 336 336 341 348 352 353 354 354 356 358 360 360 360 360 360 360 361 360 360 358 358 361 360 363 357 357 359 358 357 357 354 353 356 348 343 344 342 339 342 347 345 348 347 336 332 328 331 327 331 338 343 339 340 340 340 340 339 341 341 343 347 348 348 349 352 352
337 339 339 342 345 345 345 345 347 348 349 349 349 349 346 343 341 338 338 337 338 338 344 351 353 354 352 355 357 357 358 358 358 358 358 360 361 360 359 359 361 362 363 359 359 360 359 359 359 356 353 357 350 345 343 345 334 334 354 347 348 347 339 339 337 332 328 326 330 335 339 337 337 339 341 340 342 342 341 344 345 345 346 348 349
337 338 338 341 345 346 345 346 347 348 349 349 349 348 347 345 342 340 339 339 339 339 344 350 351 354 351 353 355 356 356 357 357 357 357 359 363 361 360 359 359 360 366 361 360 360 357 357 357 353 355 355 354 350 346 343 344 343 339 340 342 342 341 338 342 338 335 327 326 331 332 337 338 337 339 341 341 341 342 342 344 347 348 348 347
339 339 340 341 345 345 345 345 347 348 349 349 350 348 346 347 341 341 339 338 341 340 341 344 347 349 349 351 353 354 355 355 356 356 357 358 362 361 360 359 359 359 364 360 358 357 355 357 357 355 355 354 355 355 348 347 350 348 342 340 338 339 335 335 336 333 334 329 327 327 331 331 330 333 338 339 340 341 341 340 343 347 346 346 347
339 338 339 340 344 345 345 344 347 349 350 349 349 348 346 346 342 342 341 339 339 338 338 340 343 345 347 349 351 352 354 353 355 355 357 358 360 361 360 359 359 362 363 358 355 355 355 358 358 357 358 356 355 355 357 355 352 353 347 340 338 337 333 335 332 336 333 331 332 330 332 336 330 331 334 338 341 340 340 341 340 343 345 346 347
Wind_Speed
9 7 6 10 11 11 12 11 16 17 17 18 17 16 17 16 16 17 16 15 14 14 14 14 14 15 15 15 15 16 15 15 15 14 14 14 14 14 13 13 14 14 14 14 15 14 14 14 13 13 13 12 14 12 13 13 13 13 14 14 15 15 15 15 14 14 14 14 13 13 12 12 13 13 13 14 14 15 15 14 13 10 6 9 13
12 11 9 9 13 12 14 15 16 17 17 17 17 17 17 17 17 16 16 15 14 14 15 14 14 14 15 15 15 15 15 14 14 14 14 14 14 14 14 14 13 14 14 15 14 14 13 13 13 13 13 14 14 12 11 13 14 13 15 15 15 15 15 15 14 14 14 14 14 13 13 12 12 13 14 14 14 15 14 14 14 8 5 12 15
8 9 10 11 17 14 10 14 16 17 17 16 16 16 16 16 16 15 16 16 16 15 15 15 14 14 15 15 15 15 14 14 14 14 14 13 13 13 14 14 13 14 14 14 14 14 13 13 13 12 13 13 13 13 13 13 14 15 14 15 15 15 15 15 14 14 14 14 14 14 13 13 13 14 14 15 14 14 15 14 14 12 8 14 14
9 8 8 11 17 16 13 14 16 17 17 16 16 16 15 15 14 15 15 15 15 15 15 14 14 15 15 15 14 14 14 14 14 14 14 14 14 14 14 14 13 14 14 14 14 13 13 13 13 13 13 14 11 13 14 14 15 14 14 14 13 13 13 13 13 14 14 14 14 10 5 4 9 13 14 14 15 14 14 14 14 13 14 13 15
9 7 8 10 11 16 16 15 17 18 17 17 16 16 15 14 14 14 14 14 15 14 14 13 14 14 15 15 14 14 13 13 13 13 13 13 13 14 15 14 13 14 14 14 13 13 13 13 14 13 13 14 13 14 14 14 13 13 13 13 12 12 13 13 14 14 14 14 12 7 4 4 5 13 14 15 15 15 14 14 14 14 15 15 15
8 6 6 6 6 11 17 15 17 18 17 17 17 16 15 15 15 14 14 14 14 14 13 13 14 14 14 14 14 13 13 13 13 13 13 13 13 13 14 14 14 14 13 14 13 13 13 13 13 13 13 13 13 13 15 15 14 13 14 14 13 13 12 13 14 14 14 13 10 5 4 4 4 7 15 14 14 14 14 14 14 14 15 15 15
10 6 6 5 5 8 13 15 17 17 18 17 17 16 15 15 15 14 14 14 14 14 13 13 14 14 13 13 13 13 12 12 13 13 13 13 13 13 13 13 13 13 13 13 13 14 13 13 13 13 13 13 14 13 13 14 14 13 13 13 13 12 13 13 13 13 11 6 4 4 5 4 3 4 15 14 14 15 15 14 14 15 16 14 15
8 6 6 5 5 10 11 14 16 17 17 17 17 16 16 15 15 15 14 14 14 13 14 14 14 14 13 13 13 13 13 12 11 12 13 13 13 13 12 13 13 12 12 12 13 13 13 13 13 13 13 13 13 13 12 12 13 13 12 12 13 13 13 13 13 11 10 5 4 5 5 4 4 4 12 14 14 14 15 15 14 14 15 15 15
9 7 7 6 6 13 12 14 15 18 17 17 17 16 16 15 15 15 15 14 14 14 13 14 14 14 13 12 12 12 12 13 12 12 13 13 13 13 12 13 12 12 12 12 13 13 12 12 13 13 13 12 12 12 11 12 14 14 12 13 14 14 14 13 12 11 6 4 4 4 4 4 4 5 12 16 16 15 15 13 14 16 16 15 14
10 9 7 6 7 13 16 16 16 17 17 16 16 16 15 15 15 15 15 14 14 14 14 14 14 13 13 13 11 12 12 12 13 13 13 13 13 13 13 13 13 12 12 12 12 12 12 12 13 12 12 12 12 11 11 11 13 15 11 14 15 15 15 14 12 8 4 5 5 3 4 6 3 4 11 14 15 14 14 13 10 11 11 15 14
11 9 7 7 9 14 16 16 17 16 16 16 15 15 15 15 15 15 15 15 14 14 14 14 14 13 12 13 13 12 11 12 12 13 13 13 13 13 12 12 13 13 12 12 12 12 12 12 12 12 11 11 12 12 11 12 13 15 12 13 16 16 15 13 9 4 4 4 4 3 7 9 3 3 12 14 15 14 15 14 14 14 15 15 14
10 9 8 7 13 16 15 16 16 16 15 15 15 15 15 15 15 15 14 14 14 14 13 13 14 14 13 12 11 12 12 12 12 12 13 13 13 13 12 12 12 13 12 12 12 12 12 12 12 11 11 11 12 12 12 11 13 15 14 14 14 15 14 12 5 4 5 5 5 4 4 5 5 8 15 15 15 14 15 14 14 14 14 13 14
11 9 8 9 10 15 16 16 16 16 15 14 14 14 14 15 14 14 14 14 14 14 13 13 14 14 13 13 12 12 12 12 12 12 12 12 12 12 12 12 12 12 12 11 12 12 12 12 12 11 11 11 12 12 12 12 13 13 15 16 16 16 14 11 4 5 5 5 4 4 4 4 5 11 14 15 14 14 14 13 13 13 13 13 13
12 10 9 9 8 15 16 16 16 15 14 15 14 14 14 14 14 14 14 12 13 14 13 13 13 13 13 13 13 12 12 12 12 12 12 12 12 12 12 12 12 12 11 12 12 12 12 12 11 11 11 11 12 11 12 13 13 13 13 15 15 16 15 10 7 5 5 5 4 4 4 4 4 10 13 14 13 13 13 13 13 13 12 12 12
13 11 10 8 9 9 17 16 15 15 14 14 14 13 12 14 14 14 14 14 13 13 13 13 13 13 12 12 12 12 12 11 12 12 12 12 11 11 12 11 11 11 11 11 12 12 11 11 10 10 10 10 12 10 12 13 14 13 13 14 15 14 13 5 5 5 5 4 3 4 4 3 9 11 13 13 13 13 13 13 12 12 12 12 12
12 12 10 8 8 8 9 14 15 15 14 14 14 15 15 14 14 14 14 13 13 12 13 13 13 12 12 12 12 11 11 11 11 12 11 12 11 11 11 12 11 11 11 11 12 11 11 10 10 10 9 9 11 11 10 11 11 12 13 13 13 14 13 7 5 5 4 4 3 3 3 4 10 11 12 13 13 12 12 13 12 12 12 12 11
11 10 10 9 9 7 7 7 10 15 14 14 14 15 15 14 14 14 13 13 13 13 12 13 12 13 12 12 12 11 11 11 11 11 11 11 11 11 11 12 11 11 11 12 12 11 10 9 9 8 8 8 10 10 11 11 11 11 12 13 14 14 12 9 5 4 4 4 3 3 4 3 8 11 12 12 12 12 12 11 11 11 11 11 11
11 10 10 9 8 7 6 6 8 7 7 11 14 15 14 14 14 13 13 13 12 12 12 13 12 12 13 12 12 12 11 11 11 11 11 10 10 10 11 11 11 11 11 12 12 11 10 9 9 8 7 8 9 11 10 10 10 11 12 13 14 14 13 10 4 4 4 4 3 2 2 7 8 10 11 11 11 11 11 10 10 10 10 10 10
10 9 9 9 8 7 7 6 6 6 6 5 5 9 14 14 13 13 13 13 13 13 13 12 12 12 12 12 12 12 11 11 11 11 10 11 10 10 10 10 10 11 11 11 11 10 9 9 8 7 7 8 8 10 10 10 11 11 12 12 14 14 13 7 4 4 4 3 3 2 3 7 8 10 11 11 10 10 10 9 9 10 10 10 10
7 8 8 7 8 7 7 7 6 6 5 5 5 6 11 14 13 13 13 13 13 13 13 13 12 12 12 12 12 9 9 8 12 8 10 10 10 7 9 9 10 11 10 10 10 9 8 7 6 6 6 7 7 8 10 10 9 11 11 11 12 12 6 5 5 5 4 4 2 2 3 7 10 10 10 10 10 10 9 9 9 9 9 9 9
6 7 6 7 7 8 8 6 6 6 6 6 5 5 8 13 11 12 14 13 13 13 13 13 12 11 10 11 10 5 3 3 6 4 9 5 8 9 9 10 9 10 10 9 9 8 8 7 6 5 6 6 6 7 8 9 9 9 11 12 12 6 5 5 5 4 4 3 2 1 3 7 9 10 10 9 9 9 9 9 8 8 8 8 8
7 7 6 7 7 7 7 7 6 7 6 5 4 4 5 8 5 5 5 8 10 11 9 5 7 4 10 7 3 2 3 3 3 6 3 4 5 9 9 9 9 9 9 9 7 6 7 6 5 5 6 6 6 4 3 4 7 7 7 11 6 4 4 5 4 4 4 3 3 3 4 8 9 9 10 9 9 8 8 8 8 8 7 7 8
8 7 7 7 7 7 7 7 7 6 7 5 5 4 5 4 4 5 4 7 6 5 4 4 3 4 3 3 3 4 3 2 2 4 3 8 6 8 9 9 9 9 9 8 7 7 8 6 6 5 5 6 3 1 1 1 2 3 4 4 5 5 5 5 4 4 4 3 2 6 7 9 9 9 10 9 9 8 7 7 7 7 7 7 7
10 9 8 7 7 7 7 7 7 7 6 5 5 4 4 4 4 4 3 3 4 4 3 4 4 3 3 3 4 3 3 3 7 10 8 4 6 9 10 9 9 7 8 5 7 8 7 7 6 4 4 2 1 1 0 0 0 1 1 1 5 5 5 4 5 4 4 4 2 8 7 8 8 9 9 9 8 8 7 7 6 6 6 6 6
9 8 7 9 8 8 8 7 7 7 6 5 6 5 4 4 4 4 3 4 4 3 4 4 4 4 3 3 3 3 3 1 2 2 2 3 3 3 2 2 2 2 5 3 3 2 3 2 1 2 0 0 0 1 1 1 1 1 2 2 4 5 5 4 5 5 4 3 3 9 9 8 8 8 9 9 8 7 7 6 6 6 6 6 6
9 9 9 9 9 9 9 7 8 7 6 6 6 6 6 5 4 4 4 3 4 4 4 5 5 4 3 3 3 3 2 2 3 2 2 2 3 2 2 2 2 2 3 3 2 2 1 1 0 1 2 1 2 2 1 1 2 2 1 2 5 5 4 4 4 4 4 4 4 9 9 8 8 8 8 7 7 7 6 6 6 6 6 6 6
9 9 9 9 9 10 9 8 9 7 6 6 5 5 5 5 4 4 4 4 4 4 4 4 4 4 4 3 4 4 3 3 3 2 2 2 2 2 2 2 2 2 2 3 2 1 1 0 1 2 2 2 2 2 2 1 1 4 4 4 5 5 4 5 4 4 3 3 4 9 7 7 7 7 7 8 7 6 7 6 6 6 6 6 5
9 10 10 10 9 12 9 10 9 8 7 7 6 6 5 5 5 5 5 5 4 4 4 5 4 5 4 3 4 4 4 4 3 3 2 2 2 2 1 2 2 2 1 2 2 0 1 2 2 2 3 2 2 1 1 1 2 1 5 5 6 5 5 4 4 4 4 3 2 7 8 8 7 7 7 7 7 7 7 6 6 6 6 5 5
11 11 10 10 11 10 10 11 9 8 8 8 6 6 5 5 6 5 5 6 5 5 4 4 4 4 4 3 4 5 4 4 4 3 2 2 2 1 1 1 0 1 2 2 2 2 2 3 2 2 2 2 2 2 1 2 2 1 6 6 6 5 5 5 5 5 4 4 3 5 8 8 7 7 7 7 7 7 7 7 7 6 6 5 6
12 11 11 10 10 10 11 11 10 9 9 8 6 6 6 6 6 6 6 6 5 5 4 4 4 4 4 3 3 5 5 5 4 3 3 3 2 2 2 2 2 2 2 2 2 2 3 2 2 2 2 2 2 1 2 2 2 2 5 7 6 6 5 5 5 5 4 4 3 4 9 8 8 7 7 6 6 7 7 7 7 7 6 6 6
12 11 10 10 10 11 11 11 9 9 8 8 7 7 6 7 7 5 6 6 6 5 5 4 4 4 5 4 3 5 5 5 5 5 4 4 3 3 2 1 2 2 1 2 2 3 2 2 2 2 2 2 2 3 2 3 3 3 4 7 6 5 5 5 5 4 4 4 3 2 4 9 8 7 6 6 6 6 6 7 7 7 7 7 7
13 12 10 9 10 12 11 12 9 10 9 9 8 7 7 7 6 5 6 5 6 5 5 5 5 5 5 4 3 4 4 4 5 5 4 4 4 3 2 2 3 2 1 2 3 2 2 3 2 3 2 2 2 1 1 4 4 4 5 7 6 6 5 5 5 5 4 4 4 3 3 4 8 7 7 7 7 7 7 7 7 7 7 7 7
10 12 11 11 12 12 11 12 9 9 10 10 9 7 7 6 6 6 5 5 5 5 5 5 5 5 5 5 4 3 4 5 5 5 4 3 3 2 2 3 3 2 2 2 2 1 1 0 1 0 0 1 1 4 2 2 4 5 5 6 6 6 5 5 5 5 5 5 4 4 3 3 3 8 8 8 8 8 8 8 8 8 7 7 8
11 10 12 12 11 9 8 9 8 10 10 9 8 7 7 6 5 5 5 6 5 5 5 5 5 5 5 5 4 4 4 5 5 4 4 3 3 2 2 2 3 2 1 1 3 1 1 1 0 1 2 2 3 3 3 2 5 5 6 6 6 6 6 5 5 5 5 5 5 4 4 3 3 3 4 9 9 9 9 9 8 8 8 8 8
10 11 14 13 12 10 9 9 9 9 10 9 9 8 7 6 6 6 5 5 5 5 4 5 5 5 5 5 5 4 4 5 5 5 4 3 3 2 2 4 3 1 1 2 2 0 1 0 0 1 2 3 3 2 1 1 2 6 5 6 6 5 5 6 5 5 5 4 5 4 4 4 4 4 4 4 7 9 9 9 9 9 9 9 9
14 13 13 13 12 10 10 10 10 9 9 9 9 8 8 7 6 7 5 4 5 5 5 5 5 4 5 5 4 3 4 5 5 5 5 4 4 4 4 2 2 1 2 1 1 1 0 1 1 1 1 1 2 2 2 0 2 5 4 5 5 6 6 5 5 5 5 4 5 5 5 5 5 5 5 5 4 4 8 10 10 10 10 10 10
14 14 13 13 12 12 11 11 12 11 8 9 8 7 6 7 7 7 6 5 5 5 5 5 5 5 5 5 4 4 4 5 5 5 5 4 4 4 4 3 2 3 2 1 1 1 1 0 1 1 1 0 1 1 2 1 2 3 4 5 6 6 6 6 5 5 5 5 5 5 5 5 5 7 5 5 5 4 6 10 11 11 11 11 10
14 15 15 14 13 12 11 11 11 10 7 9 8 8 7 7 7 6 5 6 6 5 6 6 6 5 5 5 4 4 4 4 5 5 5 4 4 4 3 3 3 2 2 2 1 0 0 1 1 1 1 0 0 1 2 1 1 2 3 4 4 6 7 7 6 5 6 5 5 6 7 6 5 6 5 5 5 5 5 7 12 12 12 12 11
13 15 15 11 11 11 10 11 10 10 8 9 8 7 7 6 6 5 6 5 5 5 6 6 6 5 5 5 5 4 4 3 4 5 5 5 4 3 4 3 3 2 2 1 1 1 1 2 1 1 1 0 1 1 2 1 3 2 3 2 3 2 0 3 6 6 6 7 7 7 5 6 5 5 5 6 5 5 6 5 5 5 7 13 13
14 13 14 12 12 11 10 10 10 9 8 8 7 7 7 7 7 5 5 6 6 5 5 7 6 6 6 5 5 5 4 4 4 4 5 5 5 4 4 2 3 3 3 2 1 1 1 2 1 1 2 2 2 2 2 3 3 3 1 1 3 3 3 2 5 7 6 6 6 5 6 5 5 6 6 6 5 5 6 5 5 6 5 8 13
15 15 14 13 14 13 12 12 10 9 8 9 7 8 8 7 6 7 7 6 7 6 6 6 6 6 7 6 6 5 4 4 4 4 5 4 4 4 4 2 2 2 2 3 2 0 0 0 0 0 0 2 2 1 2 4 6 2 3 1 1 2 1 2 4 6 6 7 6 6 5 5 6 6 6 5 5 5 5 6 6 5 6 6 7
15 15 15 14 13 14 14 13 10 9 10 9 8 7 7 7 7 7 5 5 7 6 6 6 7 6 7 6 6 5 5 5 4 4 4 5 5 4 4 4 3 3 2 2 1 0 1 1 1 1 0 0 0 1 2 4 2 3 2 0 4 4 2 1 3 3 4 6 7 7 5 7 7 7 5 5 5 6 6 6 5 6 6 6 6
17 15 15 14 14 13 13 13 11 11 9 9 8 7 6 7 7 6 6 4 4 6 7 7 7 7 7 7 6 5 6 5 5 5 5 5 5 5 5 4 3 2 2 2 1 1 1 0 0 0 1 1 0 0 1 2 2 2 1 3 0 0 2 3 2 3 4 4 5 6 7 7 9 7 6 5 6 7 7 6 6 6 6 7 6
15 14 15 16 14 12 12 13 12 11 10 9 8 7 7 6 5 7 6 5 5 4 6 7 7 7 7 6 5 6 6 5 5 5 4 5 6 5 4 4 4 3 3 4 3 3 2 1 1 0 1 0 2 0 1 1 3 5 1 1 2 3 0 3 3 4 2 3 4 5 6 7 7 5 4 6 7 7 6 5 6 7 7 7 6
16 15 15 15 12 15 14 14 12 12 10 10 9 7 7 6 5 4 3 3 3 5 5 5 7 7 7 6 7 6 6 5 6 5 5 5 5 5 5 4 4 3 3 3 3 4 3 2 2 1 1 2 0 1 2 1 2 4 5 3 2 1 2 3 1 4 1 1 3 5 4 6 6 6 6 7 6 7 7 6 6 6 6 6 7
16 15 15 15 14 14 14 13 11 11 11 11 10 8 8 9 7 8 7 6 4 7 9 9 7 8 9 8 6 7 6 6 5 5 5 5 5 4 5 5 4 4 4 4 3 2 3 3 3 3 3 1 2 1 1 1 1 2 5 4 4 3 3 1 3 2 3 2 3 2 5 6 6 6 6 6 6 7 6 7 6 7 7 7 7
16 14 14 15 16 15 14 14 12 11 11 11 11 9 8 8 10 10 8 8 7 6 6 8 9 8 7 7 8 7 6 7 6 5 5 5 5 5 6 6 5 5 4 3 4 4 4 4 2 3 4 2 2 1 1 1 1 2 0 1 1 1 3 4 2 0 1 3 2 4 5 4 5 6 6 6 6 6 6 6 7 7 7 7 7
16 15 14 14 17 16 16 14 12 12 11 11 11 10 10 8 8 8 8 8 7 7 7 8 7 7 7 8 7 7 7 6 6 6 5 5 6 6 6 5 5 5 5 5 5 5 4 3 4 5 3 3 3 3 2 1 2 2 1 0 1 0 0 1 2 4 2 1 2 3 2 3 3 5 6 6 6 7 7 6 6 7 7 7 7
16 15 15 14 15 15 15 13 13 13 12 14 13 11 10 9 9 8 7 7 6 6 6 6 7 7 8 6 7 7 7 6 6 6 6 6 6 6 6 5 5 5 5 5 5 4 5 5 4 4 4 3 4 3 2 2 2 1 1 1 1 1 1 0 2 2 1 1 3 2 3 3 1 4 6 5 6 5 6 7 7 8 7 7 7
16 15 15 14 15 14 15 16 14 12 12 14 13 12 11 9 9 8 9 8 6 5 6 7 7 6 8 7 7 7 7 6 6 6 6 6 6 6 6 6 6 6 5 6 5 4 4 4 6 6 4 4 3 3 4 3 3 2 2 2 1 1 1 1 0 1 1 1 1 2 2 2 2 5 3 6 6 6 6 6 7 8 7 7 6
15 15 15 15 15 16 16 17 16 13 13 15 14 14 12 10 10 10 10 10 8 7 7 8 6 6 8 7 7 8 7 7 6 6 6 6 6 6 6 6 5 5 6 5 5 5 5 5 6 5 4 4 4 3 2 3 2 1 2 5 4 4 4 2 3 2 2 1 0 2 2 2 2 2 2 4 6 7 6 6 7 8 7 7 7
Wind_Direction
137 151 125 143 132 139 138 147 130 120 119 116 113 115 114 109 105 102 103 106 106 105 103 103 104 104 103 100 98 97 97 97 97 97 96 97 97 100 103 104 105 104 102 104 105 108 111 108 104 101 106 102 91 94 94 100 100 96 98 99 105 108 104 103 103 101 101 101 102 104 102 99 101 102 103 100 100 101 100 101 96 96 99 109 115
155 144 148 157 157 154 142 136 124 120 118 117 118 118 115 112 110 110 113 114 114 111 110 110 106 103 100 97 97 97 97 97 96 94 94 97 101 105 105 106 107 105 104 104 106 103 103 103 105 104 99 102 106 106 102 101 99 100 94 97 100 99 102 103 104 103 103 103 104 104 105 103 100 100 100 100 101 104 104 104 104 102 102 120 114
133 132 148 164 157 147 148 132 125 122 120 119 117 114 112 112 113 117 120 120 119 116 115 112 107 104 100 98 98 99 98 98 98 97 97 95 97 102 106 105 107 109 109 108 105 104 105 106 104 102 100 101 105 110 108 101 99 99 101 99 99 98 99 101 102 102 101 99 98 98 98 97 96 99 101 105 107 108 109 110 110 110 121 116 112
132 140 144 152 147 147 156 132 130 125 123 121 116 112 112 114 117 119 120 119 117 115 113 110 109 106 102 101 102 102 102 102 103 104 104 108 112 112 108 109 109 108 107 106 106 107 106 105 103 101 103 102 103 106 102 106 108 106 103 101 98 97 102 100 101 101 95 91 86 76 68 76 99 103 108 110 109 108 109 109 111 114 111 108 105
133 139 142 151 153 146 141 140 131 125 126 123 119 118 119 120 123 122 120 119 116 114 112 112 111 108 107 106 102 102 106 106 107 107 106 108 110 110 111 112 113 112 111 109 108 105 105 105 103 100 102 106 110 103 109 108 101 106 106 109 108 101 103 105 103 100 93 88 83 70 63 76 94 109 111 109 109 106 104 107 107 107 106 104 105
138 139 142 136 138 135 136 142 131 128 127 126 125 127 126 127 127 126 123 120 120 118 116 114 111 109 109 109 109 111 111 110 109 108 112 113 112 114 114 114 114 112 110 109 107 106 105 102 102 105 103 101 99 101 103 108 110 110 111 113 113 111 110 108 106 99 93 83 69 60 63 68 92 107 106 105 106 105 104 106 107 105 103 103 103
136 138 135 132 137 142 141 141 131 131 130 130 131 132 131 131 131 130 126 124 124 121 119 115 112 112 113 115 115 115 114 115 113 112 112 114 115 115 116 115 115 113 111 110 108 107 105 104 104 102 101 100 101 103 103 110 117 116 115 115 115 116 115 108 102 92 83 70 64 59 58 61 68 91 104 104 103 102 104 103 102 103 101 104 103
129 136 137 141 143 146 147 136 135 133 134 134 134 134 135 134 133 131 128 127 126 125 122 119 117 116 119 119 118 118 117 112 116 116 114 114 114 115 116 117 115 112 109 107 104 103 102 104 103 99 99 100 103 103 104 107 109 119 119 118 116 114 111 109 107 97 88 79 78 74 68 65 66 90 106 105 102 101 103 102 101 101 105 109 108
137 142 147 148 154 150 142 134 138 136 136 136 136 136 137 137 134 131 130 130 129 126 124 123 123 124 123 122 123 123 121 122 121 119 117 116 117 118 118 117 115 114 111 110 109 105 104 103 98 96 99 102 102 102 103 100 108 108 111 115 118 119 116 110 102 90 82 83 84 78 73 67 70 91 105 105 102 101 103 101 101 104 105 104 100
141 147 149 149 151 150 144 146 145 138 137 137 137 138 138 137 134 132 132 132 130 130 130 129 127 122 123 123 123 127 131 125 123 122 120 117 117 119 120 118 117 114 109 105 106 107 107 103 99 98 98 99 100 105 106 109 110 113 117 116 120 121 117 112 101 92 88 96 98 99 95 85 75 95 106 105 106 106 104 104 108 107 106 104 108
141 143 143 144 150 153 148 144 141 140 139 139 139 139 139 137 135 135 135 134 134 134 134 130 125 127 125 128 133 133 132 126 123 121 120 119 119 118 117 116 115 114 112 111 108 110 108 103 101 100 100 102 101 100 105 104 114 114 126 119 121 120 115 105 87 75 80 79 76 72 95 96 92 98 109 107 107 107 106 104 104 103 103 106 107
137 138 140 142 153 154 147 145 143 142 141 140 142 143 141 139 138 137 136 136 137 137 134 134 133 133 132 133 133 133 132 128 126 124 122 120 119 119 117 116 115 112 112 112 112 109 107 104 101 102 103 101 101 104 103 107 112 122 126 123 120 116 109 101 85 76 71 73 75 74 67 82 103 115 112 109 108 107 104 103 102 102 105 107 107
137 139 140 145 154 151 147 146 145 144 142 144 145 144 142 140 138 139 139 139 139 138 140 138 134 130 136 137 135 137 133 130 127 126 123 122 120 117 116 115 113 114 115 114 114 114 112 106 103 103 106 102 101 104 111 113 112 108 116 122 121 114 110 100 80 80 79 75 72 72 75 79 104 116 111 109 108 106 105 105 106 106 106 107 108
137 139 143 146 149 150 148 147 146 146 146 146 144 144 143 141 142 141 136 141 140 139 139 137 134 137 139 138 137 135 130 129 129 126 124 121 120 118 116 115 116 116 116 117 116 114 111 110 105 104 106 109 97 100 108 110 109 110 112 118 120 118 111 102 93 87 87 83 84 80 85 97 108 106 111 112 112 111 110 107 107 109 111 113 114
138 141 142 143 147 146 147 148 148 147 146 144 143 143 145 146 145 142 145 145 140 141 140 137 136 136 136 135 134 130 130 130 127 126 125 124 120 116 113 114 115 116 116 118 119 116 112 111 109 106 105 106 111 108 108 108 109 113 118 120 122 118 107 93 94 90 88 87 73 82 82 92 117 114 116 117 118 115 111 111 112 117 119 118 116
135 138 138 140 142 145 143 150 149 148 147 145 147 150 151 150 147 146 145 144 144 142 139 139 139 138 136 133 132 132 131 130 129 128 126 126 124 119 117 117 117 118 120 120 118 116 115 112 105 103 104 108 114 118 110 110 111 117 120 122 121 119 114 102 95 91 88 84 79 80 91 114 121 119 118 120 119 116 114 116 119 120 119 118 116
137 137 138 140 141 140 145 149 151 150 148 148 153 153 151 149 148 147 147 145 145 140 140 140 140 136 135 135 133 134 134 132 129 130 129 129 126 122 121 120 120 122 124 123 123 122 118 115 109 104 95 101 107 104 110 111 116 117 118 119 122 122 114 103 95 92 89 88 78 69 96 113 123 120 120 119 118 117 118 121 123 122 120 119 119
138 141 139 140 140 140 142 147 148 145 150 153 155 153 151 151 152 149 146 145 143 141 141 143 139 137 138 139 139 138 136 133 133 132 132 131 128 124 123 124 126 128 126 125 123 122 121 115 111 108 104 107 109 106 103 108 111 114 113 117 121 121 116 107 92 95 96 91 74 72 78 129 121 120 121 121 120 120 121 124 125 122 120 120 117
139 141 140 140 140 140 139 135 138 144 149 147 147 154 154 154 152 151 148 147 147 144 145 143 141 141 140 141 142 139 137 134 134 132 134 135 132 128 127 130 130 128 127 123 122 123 121 118 116 109 107 107 106 110 116 119 119 113 117 122 120 121 116 102 92 80 74 77 69 59 99 126 126 127 126 126 125 124 125 127 125 124 121 119 119
140 142 142 142 143 138 137 142 146 151 154 142 143 155 158 155 153 154 151 152 150 147 147 146 144 142 143 140 140 138 136 136 135 135 137 137 133 132 133 133 132 128 127 126 122 120 119 120 116 111 107 106 105 106 110 109 107 115 118 119 121 113 94 94 99 96 95 96 82 53 111 132 133 134 132 131 131 129 131 131 127 123 121 119 117
143 145 146 148 143 138 142 144 154 152 146 142 144 155 163 155 153 156 155 155 153 149 150 147 144 144 137 139 135 126 117 123 125 137 136 133 140 139 137 135 133 132 130 128 127 124 124 124 122 120 110 100 95 97 101 101 107 107 113 113 108 92 97 99 106 109 109 100 104 101 132 139 139 141 136 135 135 137 137 134 128 124 119 118 118
150 151 153 153 142 145 147 148 150 150 146 144 147 156 159 147 149 153 151 157 155 150 146 142 139 132 138 129 114 121 108 116 141 135 128 143 138 137 136 134 135 136 134 133 129 121 122 125 124 117 112 103 88 45 52 80 109 120 124 113 99 101 93 103 106 118 120 128 131 167 155 144 144 144 142 143 143 141 139 131 125 122 124 122 118
155 156 162 153 151 148 150 152 154 152 149 147 150 152 147 140 150 151 159 163 156 138 135 122 96 110 104 123 125 117 134 143 140 146 155 146 144 138 136 135 136 134 131 130 134 133 124 122 119 118 113 111 84 64 44 71 77 114 109 74 95 107 111 105 105 113 127 136 144 155 155 148 150 150 148 148 146 143 136 129 127 130 128 121 118
161 164 157 151 156 157 158 157 157 156 153 153 147 142 144 153 150 149 161 145 130 135 127 120 123 124 126 116 124 125 122 152 156 150 141 126 139 139 138 138 136 135 136 131 136 134 125 126 128 115 84 67 94 28 115 73 65 68 84 86 92 116 117 119 120 124 135 146 157 158 160 158 154 156 152 151 148 146 140 136 134 134 127 127 122
163 153 150 158 162 160 160 162 156 159 158 155 151 153 154 149 150 155 145 136 138 136 136 128 134 141 145 126 130 131 119 83 68 79 84 107 95 94 91 82 81 87 103 79 73 72 76 59 22 81 83 107 30 311 248 118 133 160 158 144 106 118 124 127 130 130 141 152 175 164 165 165 163 163 158 156 154 151 148 146 142 137 136 136 143
153 156 160 160 164 165 167 159 157 164 164 159 159 160 158 159 162 165 147 150 153 157 146 143 143 155 154 148 133 129 106 114 114 125 119 102 95 87 102 96 84 99 108 100 85 98 94 57 77 207 229 232 239 250 198 188 125 135 205 139 123 129 136 136 132 135 145 164 179 167 168 168 166 168 162 161 161 158 156 155 153 152 153 153 157
159 160 158 161 164 165 169 159 161 162 163 160 159 161 167 166 163 164 151 169 169 160 160 155 155 160 170 162 149 154 138 134 141 157 137 110 118 130 131 127 136 130 120 121 133 133 119 144 237 232 226 215 220 215 217 220 154 152 182 145 136 140 142 141 135 137 154 168 174 168 170 171 172 174 172 172 171 171 167 168 170 169 168 168 169
155 158 161 162 166 169 165 162 163 161 160 164 164 166 169 166 172 171 159 177 172 176 175 173 162 174 181 177 162 164 149 151 161 168 167 135 151 157 121 97 93 130 126 129 136 201 222 232 226 213 208 215 225 225 190 317 291 209 148 148 139 147 145 143 141 145 156 166 176 170 175 173 176 179 180 181 182 179 182 183 185 186 181 180 185
158 161 161 162 168 168 162 164 165 162 162 164 171 169 171 173 175 173 166 180 180 187 181 168 166 181 194 187 166 164 159 154 164 177 145 154 170 153 140 160 134 228 174 174 167 198 215 228 238 245 237 227 215 219 162 182 232 144 148 141 144 151 150 146 150 156 163 171 167 178 172 176 180 181 187 188 190 191 195 197 197 198 198 194 198
162 159 161 164 165 165 165 168 167 164 164 168 172 172 178 174 180 179 171 177 186 184 176 173 173 177 206 199 185 171 169 161 164 166 165 179 181 178 172 197 208 246 187 205 227 201 230 256 264 252 244 237 242 240 147 190 208 153 145 144 152 159 157 154 158 165 168 164 167 191 174 179 182 183 187 193 195 195 197 199 203 206 204 203 207
156 161 162 163 161 163 168 171 165 166 164 172 171 178 176 179 181 175 177 176 181 179 180 174 170 191 204 202 205 181 167 160 160 170 178 179 187 180 191 188 227 254 211 236 216 206 217 231 225 233 250 247 234 230 181 184 220 147 164 152 158 152 156 153 154 160 166 169 173 192 186 184 186 186 189 193 199 204 201 205 205 209 211 210 213
160 163 163 162 160 166 167 173 168 167 167 170 173 175 178 178 178 171 183 179 175 181 181 175 181 195 200 206 205 188 169 168 163 170 178 182 184 187 186 187 224 266 248 250 213 220 224 237 229 225 226 213 252 343 270 174 190 157 173 159 154 154 156 157 163 167 166 169 178 197 190 188 191 193 198 199 202 205 207 208 210 212 212 215 217
163 161 161 163 166 167 167 173 166 167 169 171 175 178 174 174 176 180 184 181 186 174 178 182 182 189 195 202 211 193 170 169 172 173 180 180 174 180 184 210 211 226 227 247 225 199 156 59 7 15 229 234 243 141 183 126 157 161 173 159 157 158 158 159 166 164 173 177 185 192 193 187 199 199 205 209 209 209 210 212 215 216 217 220 222
160 160 160 166 167 172 168 170 166 165 170 170 172 173 176 177 179 180 181 185 189 177 177 178 182 180 182 199 207 202 174 175 163 174 172 168 175 181 201 218 225 227 232 195 183 190 88 66 356 42 350 29 3 9 37 71 160 170 165 162 164 165 159 164 167 178 173 179 179 183 192 195 201 211 209 214 216 217 216 217 218 222 225 228 232
156 161 166 165 167 167 168 172 171 164 167 170 173 174 174 177 178 183 186 185 180 174 166 174 182 174 170 185 187 187 169 171 168 166 171 170 169 182 210 228 223 212 215 193 160 73 83 90 54 51 2 20 36 345 14 30 181 166 163 160 168 166 165 168 168 173 177 175 172 184 184 200 206 210 214 221 223 226 225 225 228 229 231 233 238
161 163 163 164 168 164 168 171 173 168 168 172 175 170 172 175 180 186 177 173 169 169 164 171 171 165 163 163 165 157 150 156 163 161 167 180 178 185 201 215 211 171 197 159 112 131 82 20 344 106 50 6 6 339 355 15 156 140 145 148 161 168 170 168 176 176 170 169 181 180 190 200 203 207 211 216 225 231 232 229 234 236 237 240 242
162 161 162 167 167 165 167 168 176 176 168 173 172 166 164 173 182 184 164 163 169 163 160 161 155 163 163 151 154 146 140 143 151 159 165 175 176 175 182 176 163 164 168 165 135 192 146 270 302 238 143 233 18 321 329 49 94 79 124 141 152 167 173 179 181 174 158 173 184 190 194 204 211 212 212 212 220 228 236 235 234 238 240 241 244
164 162 163 167 168 166 169 169 175 179 171 171 173 169 170 172 185 177 154 167 167 159 161 156 158 161 153 151 150 143 145 143 141 148 151 162 164 165 161 159 151 146 159 126 123 118 124 168 240 316 159 140 79 334 298 47 73 97 102 123 146 153 161 174 180 173 164 176 195 198 203 198 205 212 210 213 215 217 229 237 237 239 241 243 244
166 163 164 164 163 166 166 168 172 178 175 169 168 169 165 175 188 165 157 168 163 169 163 159 160 159 160 157 151 147 149 150 140 143 144 145 145 151 154 162 145 131 114 73 51 36 44 51 132 358 359 243 252 271 256 196 125 116 116 151 132 148 108 140 177 170 177 187 193 208 188 198 203 214 216 212 215 213 219 226 232 232 239 241 242
166 162 164 162 163 165 165 167 172 176 170 167 160 160 164 178 185 174 151 167 173 173 182 166 162 162 164 160 158 152 155 160 154 141 138 145 147 153 155 150 146 136 130 129 151 50 38 31 49 65 4 338 310 234 186 119 89 109 150 149 142 151 176 186 154 182 186 188 202 199 200 194 201 214 213 216 213 215 218 220 220 227 230 240 241
166 164 163 165 164 167 165 169 171 171 171 169 168 162 168 175 187 183 175 170 175 173 176 170 167 171 168 166 164 158 160 166 160 147 152 148 147 147 143 154 156 150 161 171 189 192 287 54 169 21 115 45 10 92 162 123 115 49 359 17 6 351 292 197 177 180 185 196 199 202 201 191 210 210 214 206 214 216 216 217 220 219 228 231 242
171 167 166 168 166 166 168 167 166 172 176 175 170 165 173 177 176 184 170 162 171 166 173 176 172 173 172 170 169 164 167 171 165 160 154 152 150 151 159 169 170 170 176 167 160 186 336 9 55 1 350 105 130 214 184 95 51 143 129 333 348 333 314 1 298 244 206 187 195 200 198 206 210 212 207 201 212 217 219 217 219 220 224 228 233
169 170 166 164 165 169 170 166 170 171 177 174 169 167 171 173 170 181 176 165 183 170 168 177 168 169 177 175 169 170 172 173 171 166 157 166 160 157 173 176 181 175 140 148 145 203 242 263 131 126 349 351 291 285 214 112 171 104 102 83 320 90 317 349 302 266 242 227 174 199 202 212 216 206 199 196 210 218 221 214 215 221 222 225 229
169 168 167 167 167 171 172 169 171 172 175 175 174 167 169 173 173 172 179 168 174 154 166 164 168 161 172 178 174 175 179 178 176 173 166 166 165 167 159 174 189 180 163 162 184 210 246 259 276 224 117 20 5 328 263 123 129 122 94 162 204 123 344 287 263 282 260 226 217 205 206 210 215 201 183 198 211 215 222 214 218 221 225 224 227
173 172 169 169 171 171 173 171 171 173 175 175 172 160 155 166 174 157 154 201 79 126 143 164 169 173 165 173 187 182 184 183 183 180 170 171 175 164 167 182 184 181 171 166 187 209 217 211 192 182 180 152 190 330 323 64 141 161 138 92 29 26 216 245 158 281 319 310 237 220 213 219 212 194 194 212 208 212 211 216 223 226 229 229 229
177 175 170 170 166 170 171 171 171 173 177 177 173 163 162 172 173 169 178 193 167 148 170 174 175 172 181 185 177 186 187 185 187 186 179 172 175 172 172 178 184 190 192 193 200 207 226 216 214 189 208 223 155 90 329 323 158 247 170 158 165 177 193 242 89 267 317 233 277 256 226 212 214 201 206 208 206 214 210 216 217 225 226 230 228
178 172 169 168 166 168 172 172 173 174 176 177 175 168 162 173 183 186 183 187 173 193 178 173 170 181 171 176 183 186 189 185 190 190 185 181 175 176 178 182 182 190 196 185 201 205 208 214 207 182 212 166 110 100 215 268 358 287 46 101 197 183 167 121 218 79 348 317 318 255 259 235 209 196 206 217 214 212 217 215 218 224 224 226 228
174 169 171 167 167 170 171 174 173 174 177 175 178 178 171 171 180 186 186 190 184 182 181 173 175 166 171 180 176 188 188 191 188 192 188 184 179 181 181 180 181 192 189 199 206 208 202 213 190 205 191 177 153 155 206 233 137 271 319 37 343 156 71 34 133 160 167 185 302 324 272 237 211 220 210 213 216 216 213 216 223 229 226 225 221
173 173 173 170 169 169 170 171 174 175 177 176 179 184 178 172 178 178 187 200 190 174 171 167 171 170 173 175 179 185 189 193 193 192 191 182 182 182 181 181 187 193 199 209 214 198 195 184 180 186 197 184 178 180 133 207 163 222 35 328 30 30 353 140 133 112 141 136 275 244 292 326 243 253 235 223 226 216 212 213 216 222 222 225 222
177 173 170 166 168 168 171 172 177 178 177 177 180 184 182 172 175 183 186 196 197 159 163 173 175 176 175 178 182 183 190 191 199 198 192 186 183 180 180 184 192 195 198 207 216 194 189 187 182 188 194 189 204 169 183 205 196 205 179 176 166 346 18 14 345 137 74 145 214 271 248 261 246 272 235 232 229 226 223 222 226 229 228 230 229
176 173 171 169 169 171 172 175 179 178 178 179 179 185 185 181 184 183 187 191 197 168 166 177 174 177 180 184 181 189 190 194 190 200 192 188 186 182 184 190 189 190 201 204 211 196 188 189 187 184 182 193 198 202 202 210 203 224 190 184 182 172 175 183 238 229 204 206 31 290 284 220 225 298 274 226 235 233 226 227 226 230 229 230 230